Simultaneous Nadir Overpasses (SNOs) Predictions

Prediction of SNOs between GOES-15 and METOP-A Satellite Orbit:

Table of predicted SNOs for the next 14.0 days since TLE Epoch: 3/23/2017
Index Date Time (GOES-15) GOES-15 Lat,Lon METOP-A Lat,Lon Distance(km) Time Diff (sec)
1 03/24/2017 18:44:35 0.00,-134.94 0.75,-138.36 389.30 80
2 03/25/2017 18:21:16 0.01,-134.98 -0.36,-133.36 183.72 80
3 03/27/2017 06:40:17 -0.00,-135.05 -0.63,-137.97 332.65 80
4 03/28/2017 06:22:18 -0.01,-135.08 0.48,-132.98 240.29 80
5 03/29/2017 18:41:09 0.00,-135.11 0.54,-137.54 276.10 80
6 03/30/2017 18:17:49 0.01,-135.14 -0.57,-132.54 296.04 80
7 04/01/2017 06:36:50 -0.00,-135.20 -0.47,-137.14 222.06 80
8 04/02/2017 06:18:51 -0.01,-135.22 0.70,-132.16 349.88 80
9 04/03/2017 18:37:42 -0.00,-135.25 0.31,-136.72 167.80 80
10 04/04/2017 18:14:23 0.00,-135.27 -0.80,-131.73 403.53 80
11 04/06/2017 06:33:23 0.00,-135.31 -0.23,-136.32 115.70 80




NCC Satellite Simultaneous Nadir Overpasses (SNOs) Prediction Service
